Time,TemperatureF,DewpointF,PressureIn,WindDirection,WindDirectionDegrees,WindSpeedMPH,WindSpeedGustMPH,Humidity,HourlyPrecipIn,Conditions,Clouds,dailyrainin,SolarRadiationWatts/m^2,SoftwareType,DateUTC
2013-05-14 00:02:00,51.0,30.0,-100.00,SSW,199,0.0,1.0,44,0.00,,,0.00,0.000000,,2013-05-14 04:02:00,
2013-05-14 00:32:00,49.0,34.0,-100.00,SSW,202,0.0,2.0,55,0.00,,,0.00,0.000000,,2013-05-14 04:32:00,
2013-05-14 00:43:00,49.0,34.0,-100.00,SSW,202,0.0,2.0,55,0.00,,,0.00,0.000000,,2013-05-14 04:43:00,
2013-05-14 00:53:00,49.0,34.0,-100.00,SSW,202,0.0,2.0,55,0.00,,,0.00,0.000000,,2013-05-14 04:53:00,
2013-05-14 01:02:00,49.0,34.0,-100.00,SSW,202,0.0,2.0,55,0.00,,,0.00,0.000000,,2013-05-14 05:02:00,
2013-05-14 01:32:00,50.0,33.0,-100.00,SW,227,0.0,1.0,52,0.00,,,0.00,0.000000,,2013-05-14 05:32:00,
2013-05-14 01:42:00,50.0,33.0,-100.00,SW,227,0.0,1.0,52,0.00,,,0.00,0.000000,,2013-05-14 05:42:00,
2013-05-14 01:52:00,50.0,33.0,-100.00,SW,227,0.0,1.0,52,0.00,,,0.00,0.000000,,2013-05-14 05:52:00,
2013-05-14 02:01:00,50.0,33.0,-100.00,SW,227,0.0,1.0,52,0.00,,,0.00,0.000000,,2013-05-14 06:01:00,
2013-05-14 02:32:00,51.0,35.0,-100.00,WSW,245,0.0,3.0,55,0.00,,,0.00,0.000000,,2013-05-14 06:32:00,
2013-05-14 02:42:00,51.0,35.0,-100.00,WSW,245,0.0,3.0,55,0.00,,,0.00,0.000000,,2013-05-14 06:42:00,
2013-05-14 02:52:00,51.0,35.0,-100.00,WSW,245,0.0,3.0,55,0.00,,,0.00,0.000000,,2013-05-14 06:52:00,
2013-05-14 03:02:00,51.0,35.0,-100.00,WSW,245,0.0,3.0,55,0.00,,,0.00,0.000000,,2013-05-14 07:02:00,
2013-05-14 03:42:00,50.0,34.0,-100.00,SW,214,0.0,2.0,55,0.00,,,0.00,0.000000,,2013-05-14 07:42:00,
2013-05-14 03:52:00,50.0,34.0,-100.00,SW,214,0.0,2.0,55,0.00,,,0.00,0.000000,,2013-05-14 07:52:00,
2013-05-14 04:02:00,50.0,34.0,-100.00,SW,214,0.0,2.0,55,0.00,,,0.00,0.000000,,2013-05-14 08:02:00,
2013-05-14 04:42:00,51.0,34.0,-100.00,SW,236,0.0,4.0,53,0.00,,,0.00,0.000000,,2013-05-14 08:42:00,
2013-05-14 04:52:00,51.0,34.0,-100.00,SW,236,0.0,4.0,53,0.00,,,0.00,0.000000,,2013-05-14 08:52:00,
2013-05-14 05:02:00,51.0,34.0,-100.00,SW,236,0.0,4.0,53,0.00,,,0.00,0.000000,,2013-05-14 09:02:00,
2013-05-14 05:33:00,49.0,33.0,-100.00,South,178,0.0,4.0,53,0.00,,,0.00,0.000000,,2013-05-14 09:33:00,
2013-05-14 05:44:00,49.0,33.0,-100.00,South,178,0.0,4.0,53,0.00,,,0.00,0.000000,,2013-05-14 09:44:00,
2013-05-14 05:54:00,49.0,33.0,-100.00,South,178,0.0,4.0,53,0.00,,,0.00,0.000000,,2013-05-14 09:54:00,
2013-05-14 06:04:00,49.0,33.0,-100.00,South,178,0.0,4.0,53,0.00,,,0.00,0.000000,,2013-05-14 10:04:00,
2013-05-14 06:33:00,48.0,33.0,-100.00,WSW,245,1.0,6.0,56,0.00,,,0.00,0.000000,,2013-05-14 10:33:00,
2013-05-14 06:42:00,48.0,33.0,-100.00,WSW,245,1.0,6.0,56,0.00,,,0.00,0.000000,,2013-05-14 10:42:00,
2013-05-14 06:52:00,48.0,33.0,-100.00,WSW,245,1.0,6.0,56,0.00,,,0.00,0.000000,,2013-05-14 10:52:00,
2013-05-14 07:02:00,48.0,33.0,-100.00,WSW,245,1.0,6.0,56,0.00,,,0.00,0.000000,,2013-05-14 11:02:00,
2013-05-14 07:32:00,51.0,34.0,-100.00,WSW,241,2.0,6.0,51,0.00,,,0.00,6.000000,,2013-05-14 11:32:00,
2013-05-14 07:43:00,51.0,34.0,-100.00,WSW,241,2.0,6.0,51,0.00,,,0.00,6.000000,,2013-05-14 11:43:00,
2013-05-14 07:53:00,51.0,34.0,-100.00,WSW,241,2.0,6.0,51,0.00,,,0.00,6.000000,,2013-05-14 11:53:00,
2013-05-14 08:02:00,51.0,34.0,-100.00,WSW,241,2.0,6.0,51,0.00,,,0.00,6.000000,,2013-05-14 12:02:00,
2013-05-14 08:42:00,54.0,36.0,-100.00,SW,223,1.0,8.0,51,0.00,,,0.00,72.000000,,2013-05-14 12:42:00,
2013-05-14 08:52:00,54.0,36.0,-100.00,SW,223,1.0,8.0,51,0.00,,,0.00,72.000000,,2013-05-14 12:52:00,
2013-05-14 09:01:00,54.0,36.0,-100.00,SW,223,1.0,8.0,51,0.00,,,0.00,72.000000,,2013-05-14 13:01:00,
2013-05-14 09:42:00,61.0,38.0,-100.00,WSW,247,3.0,11.0,43,0.00,,,0.00,332.000000,,2013-05-14 13:42:00,
2013-05-14 09:52:00,61.0,38.0,-100.00,WSW,247,3.0,11.0,43,0.00,,,0.00,332.000000,,2013-05-14 13:52:00,
2013-05-14 10:01:00,61.0,38.0,-100.00,WSW,247,3.0,11.0,43,0.00,,,0.00,332.000000,,2013-05-14 14:01:00,
2013-05-14 10:42:00,66.0,41.0,-100.00,WSW,246,4.0,13.0,40,0.00,,,0.00,505.000000,,2013-05-14 14:42:00,
2013-05-14 10:52:00,66.0,41.0,-100.00,WSW,246,4.0,13.0,40,0.00,,,0.00,505.000000,,2013-05-14 14:52:00,
2013-05-14 11:01:00,66.0,41.0,-100.00,WSW,246,4.0,13.0,40,0.00,,,0.00,505.000000,,2013-05-14 15:01:00,
2013-05-14 11:33:00,71.0,47.0,-100.00,WSW,252,3.0,13.0,42,0.00,,,0.00,703.000000,,2013-05-14 15:33:00,
2013-05-14 12:02:00,71.0,47.0,-100.00,WSW,252,3.0,13.0,42,0.00,,,0.00,703.000000,,2013-05-14 16:02:00,
2013-05-14 12:33:00,75.0,50.0,-100.00,WSW,248,3.0,11.0,41,0.00,,,0.00,821.000000,,2013-05-14 16:33:00,
2013-05-14 12:44:00,75.0,50.0,-100.00,WSW,248,3.0,11.0,41,0.00,,,0.00,821.000000,,2013-05-14 16:44:00,
2013-05-14 12:54:00,75.0,50.0,-100.00,WSW,248,3.0,11.0,41,0.00,,,0.00,821.000000,,2013-05-14 16:54:00,
2013-05-14 13:03:00,75.0,50.0,-100.00,WSW,248,3.0,11.0,41,0.00,,,0.00,821.000000,,2013-05-14 17:03:00,
2013-05-14 13:43:00,78.0,51.0,-100.00,WSW,251,3.0,15.0,39,0.00,,,0.00,898.000000,,2013-05-14 17:43:00,
2013-05-14 13:52:00,78.0,51.0,-100.00,WSW,251,3.0,15.0,39,0.00,,,0.00,898.000000,,2013-05-14 17:52:00,
2013-05-14 14:02:00,78.0,51.0,-100.00,WSW,251,3.0,15.0,39,0.00,,,0.00,898.000000,,2013-05-14 18:02:00,
2013-05-14 14:42:00,81.0,54.0,-100.00,WSW,247,4.0,14.0,39,0.00,,,-99.99,922.000000,,2013-05-14 18:42:00,
2013-05-14 14:52:00,81.0,54.0,-100.00,WSW,247,4.0,14.0,39,0.00,,,-99.99,922.000000,,2013-05-14 18:52:00,
2013-05-14 15:01:00,81.0,54.0,-100.00,WSW,247,4.0,14.0,39,0.00,,,-99.99,922.000000,,2013-05-14 19:01:00,
2013-05-14 15:42:00,84.0,56.0,-100.00,SW,225,3.0,16.0,38,0.00,,,-99.99,899.000000,,2013-05-14 19:42:00,
2013-05-14 15:53:00,84.0,56.0,-100.00,SW,225,3.0,16.0,38,0.00,,,-99.99,899.000000,,2013-05-14 19:53:00,
2013-05-14 16:02:00,84.0,56.0,-100.00,SW,225,3.0,16.0,38,0.00,,,-99.99,899.000000,,2013-05-14 20:02:00,
2013-05-14 16:44:00,84.0,54.0,-100.00,West,264,5.0,16.0,36,0.00,,,0.00,815.000000,,2013-05-14 20:44:00,
2013-05-14 16:52:00,84.0,54.0,-100.00,West,264,5.0,16.0,36,0.00,,,0.00,815.000000,,2013-05-14 20:52:00,
2013-05-14 17:03:00,84.0,54.0,-100.00,West,264,5.0,16.0,36,0.00,,,0.00,815.000000,,2013-05-14 21:03:00,
2013-05-14 18:45:00,84.0,56.0,-100.00,West,270,4.0,17.0,38,-99.99,,,0.00,504.000000,,2013-05-14 22:45:00,
2013-05-14 18:54:00,84.0,56.0,-100.00,West,270,4.0,17.0,38,-99.99,,,0.00,504.000000,,2013-05-14 22:54:00,
2013-05-14 19:03:00,84.0,56.0,-100.00,West,270,4.0,17.0,38,-99.99,,,0.00,504.000000,,2013-05-14 23:03:00,
2013-05-14 19:32:00,83.0,55.0,-100.00,West,274,5.0,14.0,39,0.00,,,0.00,320.000000,,2013-05-14 23:32:00,
2013-05-14 19:44:00,83.0,55.0,-100.00,West,274,5.0,14.0,39,0.00,,,0.00,320.000000,,2013-05-14 23:44:00,
2013-05-14 19:53:00,83.0,55.0,-100.00,West,274,5.0,14.0,39,0.00,,,0.00,320.000000,,2013-05-14 23:53:00,
2013-05-14 20:02:00,83.0,55.0,-100.00,West,274,5.0,14.0,39,0.00,,,0.00,320.000000,,2013-05-15 00:02:00,
2013-05-14 21:32:00,73.0,57.0,-100.00,West,268,1.0,8.0,57,-99.99,,,0.00,11.000000,,2013-05-15 01:32:00,
2013-05-14 21:42:00,73.0,57.0,-100.00,West,268,1.0,8.0,57,-99.99,,,0.00,11.000000,,2013-05-15 01:42:00,
2013-05-14 21:52:00,73.0,57.0,-100.00,West,268,1.0,8.0,57,-99.99,,,0.00,11.000000,,2013-05-15 01:52:00,
2013-05-14 22:02:00,73.0,57.0,-100.00,West,268,1.0,8.0,57,-99.99,,,0.00,11.000000,,2013-05-15 02:02:00,
2013-05-14 22:32:00,70.0,57.0,-100.00,West,259,1.0,8.0,64,0.00,,,0.00,0.000000,,2013-05-15 02:32:00,
2013-05-14 22:42:00,70.0,57.0,-100.00,West,259,1.0,8.0,64,0.00,,,0.00,0.000000,,2013-05-15 02:42:00,
2013-05-14 22:52:00,70.0,57.0,-100.00,West,259,1.0,8.0,64,0.00,,,0.00,0.000000,,2013-05-15 02:52:00,
2013-05-14 23:01:00,70.0,57.0,-100.00,West,259,1.0,8.0,64,0.00,,,0.00,0.000000,,2013-05-15 03:01:00,
2013-05-14 23:44:00,69.0,57.0,-100.00,WSW,243,2.0,8.0,66,0.00,,,0.00,0.000000,,2013-05-15 03:44:00,
2013-05-14 23:54:00,69.0,57.0,-100.00,WSW,243,2.0,8.0,66,0.00,,,0.00,0.000000,,2013-05-15 03:54:00,